Regional Weather Roundup
Issued by NWS Goodland, KS

Home | Current Version | Previous Version | Text Only | Print | Product List | Glossary On
Versions: 1 2 3 4 5 6 7 8 9 10 11 12 13 14 15 16 17 18 19 20 21 22 23 24 25 26 27 28 29 30 31 32 33 34 35 36 37 38 39 40 41 42 43 44 45 46 47 48 49 50
000
ASUS43 KGLD 010208
RWRGLD

GOODLAND FORECAST AREA HOURLY WEATHER ROUNDUP
NATIONAL WEATHER SERVICE GOODLAND KS
800 PM MDT FRI JUL 31 2015

...OFFICIAL OBSERVATIONS...

CITY           SKY/WX    TMP DP  RH WIND       PRES   REMARKS
GOODLAND KS    PTCLDY    80  59  48 S7        30.16R
HILL CITY KS   PTCLDY    83  62  49 S6        30.08R
IMPERIAL NEB   CLEAR     81  60  48 E6        30.11R
MCCOOK NEB     PTCLDY    85  60  42 S6        30.08R
AKRON CO       CLEAR     79  48  33 SE8       30.19S
BURLINGTON CO  CLEAR     77  58  51 SE8       30.20R
LIMON CO       PTCLDY    75  52  44 SE9       30.26R
$$

...UNOFFICIAL OBSERVATIONS...

CITY           SKY/WX    TMP DP  RH WIND       PRES   REMARKS
COLBY KS       CLEAR     82  63  51 SE8       30.14S
NORTON KS      CLEAR     82  54  36 SE6       30.08R
SHARON SPRINGS   N/A     78  62  57 SE8         N/A
KIT CARSON CO    N/A     79  55  43 MISG        N/A
YUMA CO          N/A     78  59  52 CALM        N/A
$$


USA.gov is the U.S. government's official web portal to all federal, state and local government web resources and services.